Location: �terpigny
(49.8910°N, 2.9249°E)
Time: 15:20:30
(UTC+00:00)

USA 238 DEB - Pass Details

Date: 24 October 2021
Orbit: 978 x 1234 km, 63.4° (Epoch: 25 November)

Event Time Altitude Azimuth Distance (km) Brightness Sun altitude
Rises 20:04:52 0° 314° (NW) 3,896 7.6 -33.3°
Reaches altitude 10° 20:07:35 10° 319° (NW) 2,975 6.7 -33.7°
Enters shadow 20:13:24 48° 7° (N) 1,473 4.4 -34.5°
